When you browse on this site, cookies collect data to enhance your experience and personalize the content and advertising you see.
Visit our Privacy Policy to learn more. By continuing to use the site, you agree to this use of cookies and data.
  • In Hungary
  • List of Countries
  • For 7 days
  • Water Temperature
  • Satellite Maps
  • Weather Map
  • News
  • Weather Widgets
  • user-avatar
    Login

    Hourly Weather Huangjinjing

    Today, 13 December, Thursday

    Time Temperature Precipitation Wind Pressure Humidity
    00:00 0°C° 0 mm 0 mps 713 mmHg 50%
    01:00 0°C° 0 mm 0 mps 713 mmHg 49%
    02:00 +1°C° 0 mm 0 mps 713 mmHg 50%
    03:00 +1°C° 0 mm 0 mps 713 mmHg 51%
    04:00 +1°C° 0 mm 0 mps 713 mmHg 52%
    05:00 +1°C° 0 mm 0 mps 713 mmHg 53%
    06:00 +1°C° 0 mm 0 mps 713 mmHg 53%
    07:00 +1°C° 0 mm 0 mps 713 mmHg 54%
    08:00 +3°C° 0 mm 0 mps 714 mmHg 49%
    09:00 +4°C° 0 mm 0 mps 714 mmHg 43%
    10:00 +7°C° 0 mm 1 mps 715 mmHg 38%
    11:00 +8°C° 0 mm 1 mps 714 mmHg 36%
    12:00 +9°C° 0 mm 1 mps 714 mmHg 35%
    13:00 +10°C° 0 mm 1 mps 713 mmHg 34%
    14:00 +10°C° 0 mm 1 mps 713 mmHg 37%
    15:00 +9°C° 0 mm 1 mps 712 mmHg 39%
    16:00 +9°C° 0 mm 1 mps 712 mmHg 42%
    17:00 +7°C° 0 mm 1 mps 712 mmHg 46%
    18:00 +6°C° 0 mm 1 mps 712 mmHg 50%
    19:00 +5°C° 0 mm 1 mps 712 mmHg 54%
    20:00 +4°C° 0 mm 1 mps 713 mmHg 56%
    21:00 +4°C° 0 mm 1 mps 713 mmHg 57%
    22:00 +3°C° 0 mm 1 mps 713 mmHg 59%
    23:00 +3°C° 0 mm 1 mps 713 mmHg 59%

    Tomorrow, 14 December, Friday

    Time Temperature Precipitation Wind Pressure Humidity
    00:00 +3°C° 0 mm 1 mps 713 mmHg 60%
    01:00 +2°C° 0 mm 1 mps 713 mmHg 61%
    02:00 +2°C° 0 mm 1 mps 713 mmHg 61%
    03:00 +2°C° 0 mm 1 mps 712 mmHg 61%
    04:00 +2°C° 0 mm 1 mps 712 mmHg 61%
    05:00 +2°C° 0 mm 1 mps 713 mmHg 60%
    06:00 +2°C° 0 mm 1 mps 713 mmHg 59%
    07:00 +2°C° 0 mm 1 mps 713 mmHg 59%
    08:00 +4°C° 0 mm 1 mps 714 mmHg 53%
    09:00 +6°C° 0 mm 1 mps 714 mmHg 47%
    10:00 +8°C° 0 mm 1 mps 714 mmHg 41%
    11:00 +9°C° 0 mm 1 mps 714 mmHg 41%
    12:00 +10°C° 0 mm 1 mps 713 mmHg 41%
    13:00 +11°C° 0 mm 1 mps 712 mmHg 41%
    14:00 +11°C° 0 mm 1 mps 712 mmHg 45%
    15:00 +10°C° 0 mm 1 mps 711 mmHg 49%
    16:00 +10°C° 0 mm 1 mps 711 mmHg 53%
    17:00 +9°C° 0 mm 1 mps 711 mmHg 57%
    18:00 +8°C° 0 mm 1 mps 712 mmHg 61%
    19:00 +7°C° 0 mm 1 mps 712 mmHg 65%
    20:00 +7°C° 0 mm 1 mps 712 mmHg 67%
    21:00 +6°C° 0 mm 1 mps 712 mmHg 68%
    22:00 +6°C° 0 mm 1 mps 712 mmHg 69%
    23:00 +6°C° 0 mm 1 mps 712 mmHg 69%

    Day after tomorrow, 15 December, Saturday

    Time Temperature Precipitation Wind Pressure Humidity
    00:00 +6°C° 0 mm 1 mps 712 mmHg 70%
    01:00 +6°C° 0 mm 1 mps 711 mmHg 70%
    02:00 +6°C° 0 mm 1 mps 711 mmHg 71%
    03:00 +6°C° 0 mm 1 mps 711 mmHg 71%
    04:00 +6°C° 0 mm 1 mps 710 mmHg 72%
    05:00 +6°C° 0 mm 1 mps 711 mmHg 72%
    06:00 +6°C° 0 mm 1 mps 711 mmHg 73%
    07:00 +6°C° 0 mm 1 mps 711 mmHg 73%
    08:00 +6°C° 0 mm 1 mps 712 mmHg 72%
    09:00 +7°C° 0 mm 1 mps 713 mmHg 71%
    10:00 +7°C° 0 mm 1 mps 713 mmHg 70%
    11:00 +7°C° 0.1 mm 1 mps 712 mmHg 72%
    12:00 +7°C° 0.1 mm 1 mps 712 mmHg 75%
    13:00 +7°C° 0.1 mm 1 mps 711 mmHg 77%
    14:00 +6°C° 0.3 mm 1 mps 711 mmHg 80%
    15:00 +6°C° 0.3 mm 1 mps 711 mmHg 82%
    16:00 +6°C° 0.3 mm 1 mps 710 mmHg 85%
    17:00 +6°C° 0.4 mm 1 mps 711 mmHg 86%
    18:00 +6°C° 0.4 mm 1 mps 711 mmHg 88%
    19:00 +5°C° 0.4 mm 1 mps 712 mmHg 89%
    20:00 +5°C° 0.2 mm 1 mps 712 mmHg 90%
    21:00 +5°C° 0.2 mm 1 mps 712 mmHg 90%
    22:00 +5°C° 0.2 mm 1 mps 713 mmHg 90%
    23:00 +5°C° 0.1 mm 1 mps 713 mmHg 90%

    16 December, Sunday

    Time Temperature Precipitation Wind Pressure Humidity
    00:00 +5°C° 0.1 mm 1 mps 713 mmHg 91%
    01:00 +5°C° 0.1 mm 1 mps 712 mmHg 91%
    02:00 +5°C° 0.1 mm 1 mps 712 mmHg 91%
    03:00 +5°C° 0.1 mm 1 mps 712 mmHg 91%
    04:00 +5°C° 0.1 mm 1 mps 712 mmHg 91%
    05:00 +4°C° 0 mm 0 mps 712 mmHg 90%
    06:00 +4°C° 0 mm 0 mps 713 mmHg 90%
    07:00 +5°C° 0 mm 0 mps 713 mmHg 89%
    08:00 +6°C° 0 mm 0 mps 713 mmHg 82%
    09:00 +8°C° 0 mm 0 mps 714 mmHg 74%
    10:00 +9°C° 0 mm 0 mps 714 mmHg 67%
    11:00 +11°C° 0 mm 1 mps 713 mmHg 63%
    12:00 +11°C° 0 mm 1 mps 713 mmHg 60%
    13:00 +11°C° 0 mm 1 mps 712 mmHg 57%
    14:00 +11°C° 0 mm 1 mps 711 mmHg 57%
    15:00 +11°C° 0 mm 1 mps 711 mmHg 58%
    16:00 +11°C° 0 mm 1 mps 711 mmHg 58%
    17:00 +9°C° 0 mm 0 mps 711 mmHg 61%
    18:00 +8°C° 0 mm 0 mps 711 mmHg 64%
    19:00 +6°C° 0 mm 0 mps 712 mmHg 67%
    20:00 +6°C° 0 mm 0 mps 712 mmHg 67%
    21:00 +6°C° 0 mm 0 mps 712 mmHg 67%
    22:00 +5°C° 0 mm 0 mps 712 mmHg 68%
    23:00 +5°C° 0 mm 0 mps 711 mmHg 67%

    17 December, Monday

    Time Temperature Precipitation Wind Pressure Humidity
    00:00 +5°C° 0 mm 0 mps 711 mmHg 66%
    01:00 +5°C° 0 mm 0 mps 711 mmHg 66%
    02:00 +4°C° 0 mm 0 mps 711 mmHg 64%
    03:00 +4°C° 0 mm 0 mps 710 mmHg 63%
    04:00 +4°C° 0 mm 0 mps 710 mmHg 62%
    05:00 +4°C° 0 mm 0 mps 711 mmHg 60%
    06:00 +4°C° 0 mm 0 mps 711 mmHg 59%
    07:00 +4°C° 0 mm 0 mps 711 mmHg 57%
    08:00 +7°C° 0 mm 0 mps 712 mmHg 51%
    09:00 +10°C° 0 mm 0 mps 712 mmHg 44%
    10:00 +12°C° 0 mm 0 mps 713 mmHg 37%
    11:00 +13°C° 0 mm 0 mps 712 mmHg 35%
    12:00 +14°C° 0 mm 0 mps 711 mmHg 32%
    13:00 +15°C° 0 mm 0 mps 711 mmHg 29%
    14:00 +14°C° 0 mm 0 mps 710 mmHg 33%
    15:00 +14°C° 0 mm 1 mps 710 mmHg 37%
    16:00 +14°C° 0 mm 1 mps 709 mmHg 41%
    17:00 +12°C° 0 mm 1 mps 709 mmHg 44%
    18:00 +11°C° 0 mm 1 mps 709 mmHg 47%
    19:00 +9°C° 0 mm 1 mps 709 mmHg 50%
    20:00 +9°C° 0 mm 1 mps 709 mmHg 51%
    21:00 +8°C° 0 mm 1 mps 709 mmHg 52%
    22:00 +8°C° 0 mm 1 mps 709 mmHg 53%
    23:00 +8°C° 0 mm 1 mps 709 mmHg 52%

    18 December, Tuesday

    Time Temperature Precipitation Wind Pressure Humidity
    00:00 +7°C° 0 mm 1 mps 708 mmHg 52%
    01:00 +7°C° 0 mm 1 mps 708 mmHg 52%
    02:00 +7°C° 0 mm 1 mps 707 mmHg 51%
    03:00 +7°C° 0 mm 1 mps 707 mmHg 51%
    04:00 +7°C° 0 mm 1 mps 707 mmHg 50%
    05:00 +7°C° 0 mm 1 mps 707 mmHg 50%
    06:00 +7°C° 0 mm 1 mps 707 mmHg 50%
    07:00 +7°C° 0 mm 1 mps 707 mmHg 51%
    08:00 +9°C° 0 mm 1 mps 707 mmHg 47%
    09:00 +12°C° 0 mm 1 mps 707 mmHg 43%
    10:00 +14°C° 0 mm 1 mps 708 mmHg 38%
    11:00 +15°C° 0 mm 1 mps 707 mmHg 38%
    12:00 +15°C° 0 mm 1 mps 706 mmHg 38%
    13:00 +16°C° 0 mm 1 mps 705 mmHg 38%
    14:00 +15°C° 0 mm 1 mps 704 mmHg 43%
    15:00 +14°C° 0 mm 1 mps 704 mmHg 49%
    16:00 +13°C° 0 mm 1 mps 703 mmHg 54%
    17:00 +13°C° 0 mm 1 mps 703 mmHg 56%
    18:00 +12°C° 0 mm 1 mps 703 mmHg 59%
    19:00 +12°C° 0 mm 1 mps 703 mmHg 61%
    20:00 +11°C° 0 mm 1 mps 703 mmHg 62%
    21:00 +11°C° 0 mm 1 mps 703 mmHg 64%
    22:00 +11°C° 0 mm 1 mps 703 mmHg 65%
    23:00 +11°C° 0 mm 1 mps 703 mmHg 65%
    Show more